World > North America > United States > New York

Newfane, New York Regional Weather

Lat: 43.29N, Lon: 78.7W
Wx Zone: NYZ001
Feedback

Newfane, NY Regional Weather

Expires:201910240400;;178399
ASUS41 KALY 240310
RWRALY

NEW YORK STATE HOURLY WEATHER ROUNDUP
NATIONAL WEATHER SERVICE ALBANY NY
1100 PM EDT WED OCT 23 2019

NOTE: "FAIR" INDICATES FEW OR NO CLOUDS BELOW 12,000 FEET WITH NO
SIGNIFICANT WEATHER AND/OR NO OBSTRUCTIONS TO VISIBILITY.


NYZ001>004-010>016-019>021-085-240400-
WEST

  
CITY           SKY/WX    TMP DP  RH WIND       PRES   REMARKS
NIAGARA FALLS  FAIR      46  40  79 SW8       30.06R                  
BUFFALO        FAIR      46  34  62 SW9       30.07S                  
DUNKIRK        FAIR      51  32  48 S16       30.09R                  
JAMESTOWN      FAIR      42  30  62 S7        30.13R                  
WELLSVILLE     FAIR      44  27  51 SW5       30.13R                  
ROCHESTER      FAIR      48  31  51 SW10      30.09R                  
PENN YAN       FAIR      43  34  70 SW5       30.12R                  
$$

             KEY
       WCI = WIND CHILL INDEX
       VSB = VISIBILITY
       HX  = HEAT INDEX
$$
  

SKY/WX - Weather  TMP - Temperature  DP - Dew Point  RH - Relative Humidity
WIND - Wind Direction/Speed PRES - Barometric Pressure VSB - Visibility
WCI - Wind Chill Index E13G22 Wind - East Wind 13 mph/Gusts of 22 mph